MARSHFIELD, MA current weather conditions

sailwx.info

Wind from 300 at 5 knots

Air temperature -8.0° C
Visibility: greater than 8.7 NM
Dewpoint -15.0° C

Last reported at 2015-Jan-29 06:35 UTC.
Time now 2015-Jan-29 08:22 UTC

Location: N 42°06' W 070°40'.
View on Google Maps.

See reports from other nearby stations

  
Tides and Currents Weather Stations Pressure Air Temp Water Temp Dewpoint Dewpoint Depression Visibility Wind Speed Wind Dir Waves Ship Positions
date/time (UTC)wind fromknots sea level pressurealtimeterstation pressurevisibilityair tempwater tempwave heightnotes
2015-Jan-29 07:35 300 5 8.7-8.0
2015-Jan-29 07:15 300 4 8.7-8.0
2015-Jan-29 06:55 300 5 8.7-8.0
2015-Jan-29 06:35 300 5 8.7-8.0
2015-Jan-29 06:15 290 4 8.7-8.0
2015-Jan-29 05:55 300 5 8.7-8.0
2015-Jan-29 05:35 300 5 8.7-8.0
2015-Jan-29 05:15 280 4 8.7-8.0
2015-Jan-29 04:55 290 3 8.7-7.0
2015-Jan-29 04:35 290 4 8.7-7.0
2015-Jan-29 04:15 290 4 8.7-7.0
2015-Jan-29 03:55 300 5 8.7-6.0
2015-Jan-29 03:35 310 5 8.7-5.0
2015-Jan-29 03:15 310 5 8.7-5.0
2015-Jan-29 02:55 320 6 8.7-5.0
2015-Jan-29 02:35 320 6 8.7-5.0
2015-Jan-29 02:15 320 5 8.7-5.0
2015-Jan-29 01:55 310 6 8.7-6.0
2015-Jan-29 01:35 300 4 8.7-5.0
2015-Jan-29 01:15 310 5 8.7-4.0
2015-Jan-29 00:55 320 5 8.7-5.0
2015-Jan-29 00:35 310 4 8.7-5.0
2015-Jan-29 00:15 310 5 8.7-6.0
2015-Jan-28 23:55 300 5 8.7-6.0
2015-Jan-28 23:35 290 4 8.7-6.0
2015-Jan-28 23:15 270 3 8.7-6.0
2015-Jan-28 22:55 270 3 5.2-5.0 Haze.
2015-Jan-28 22:35 300 5 2.6-4.0 Haze.
2015-Jan-28 22:15 310 4 0.7-4.0 Haze.
2015-Jan-28 21:55 310 4 3.5-3.0 Haze.
2015-Jan-28 21:35 320 8 0.4-3.0 Haze.
2015-Jan-28 21:15 310 4 1.7-3.0 Haze.
2015-Jan-28 20:55 310 8 2.6-3.0 Haze.
2015-Jan-28 20:35 320 5 2.2-3.0 Haze.
2015-Jan-28 20:15 310 8 2.2-3.0 Haze.
2015-Jan-28 19:55 340 7 1.7-3.0 Haze.
2015-Jan-28 19:35 300 6 2.2-5.0 Haze.
2015-Jan-28 19:15 300 8 gusting 18 2.2-5.0 Haze.
2015-Jan-28 18:55 330 4 2.6-5.0 Haze.
2015-Jan-28 18:35 320 8 4.3-4.0 Haze.
2015-Jan-28 18:15 320 7 gusting 14 2.2-3.0 Haze.
2015-Jan-28 17:55 360 5 gusting 16 1.7-4.0 Haze.
2015-Jan-28 17:35 330 8 gusting 16 1.7-4.0 Haze.
2015-Jan-28 17:15 330 9 gusting 16 2.2-4.0 Haze.
2015-Jan-28 16:55 330 7 gusting 18 1.3-5.0 Haze.
2015-Jan-28 16:35 330 8 gusting 17 1.5-5.0 Haze.
2015-Jan-28 16:15 310 7 gusting 16 0.9-5.0 Haze.
2015-Jan-28 15:55 330 12 gusting 17 0.7-5.0 Haze.
2015-Jan-28 15:35 310 8 gusting 15 0.7-5.0 Haze.
2015-Jan-28 15:15 330 6 gusting 14 2.2-6.0 Haze.
2015-Jan-28 14:55 320 9 gusting 14 2.6-6.0 Haze.
2015-Jan-28 14:35 300 12 gusting 20 1.5-7.0 Haze.
2015-Jan-28 14:15 310 8 gusting 15 1.3-7.0 Haze.
2015-Jan-28 13:55 300 6 gusting 14 2.2-8.0 Haze.
2015-Jan-28 13:35 300 6 gusting 16 3.5-8.0 Haze.
2015-Jan-28 13:15 300 7 0.4-8.0 Haze.
2015-Jan-28 12:55 290 6 8.7-8.0
2015-Jan-28 12:35 290 6 8.7-8.0
2015-Jan-28 12:15 290 8 8.7-8.0
2015-Jan-28 11:55 290 5 8.7-9.0
2015-Jan-28 11:35 290 6 8.7-8.0
2015-Jan-28 11:15 290 5 7.8-8.0
2015-Jan-28 10:55 300 6 7.0-8.0
2015-Jan-28 10:35 300 6 7.8-8.0
2015-Jan-28 10:15 310 7 gusting 15 8.7-8.0
2015-Jan-28 09:55 300 8 gusting 14 7.8-8.0 Light snow.
2015-Jan-28 09:35 310 8 6.1-8.0 Light snow.
2015-Jan-28 09:15 310 7 gusting 14 7.0-8.0 Light snow.
2015-Jan-28 08:55 310 6 gusting 14 6.1-8.0 Light snow.
2015-Jan-28 08:35 310 5 gusting 15 5.2-8.0 Light snow.
2015-Jan-28 08:15 310 12 gusting 16 5.2-8.0 Light snow.
2015-Jan-28 07:55 300 10 gusting 15 4.3-8.0 Light snow.
2015-Jan-28 07:35 310 9 gusting 16 3.5-8.0 Light snow.
2015-Jan-28 07:15 300 8 gusting 16 7.0-8.0 Light snow.
2015-Jan-28 06:55 310 7 gusting 17 5.2-8.0 Light snow.
2015-Jan-28 06:35 310 8 gusting 16 2.6-8.0 Light snow.
2015-Jan-28 06:15 320 14 gusting 23 2.2-8.0 Light snow.
2015-Jan-28 05:55 310 8 gusting 20 1.3-8.0 Snow.
2015-Jan-28 05:35 310 12 gusting 18 1.7-8.0 Light snow.
2015-Jan-28 05:15 320 9 gusting 20 2.2-8.0 Light snow.
2015-Jan-28 04:55 320 8 gusting 20 2.2-8.0 Light snow.
2015-Jan-28 04:35 320 12 gusting 19 1.1-8.0 Light snow.
2015-Jan-28 04:15 320 12 gusting 20 1.1-8.0 Light snow.
2015-Jan-28 03:55 320 14 gusting 23 0.7-8.0 Snow.
2015-Jan-28 03:35 320 10 gusting 25 0.9-8.0 Snow.
2015-Jan-28 03:15 320 10 gusting 20 1.1-7.0 Light snow.
2015-Jan-28 02:55 320 12 gusting 25 1.1-7.0 Snow.
2015-Jan-28 02:35 320 13 gusting 20 1.1-7.0 Snow.
2015-Jan-28 02:15 320 11 gusting 27 0.9-7.0 Light snow.
2015-Jan-28 01:55 310 11 gusting 30 0.7-7.0 Snow.
2015-Jan-28 01:35 310 12 gusting 20 0.7-7.0 Snow.
2015-Jan-28 01:15 320 9 gusting 18 0.4-7.0 Snow.
2015-Jan-28 00:55 330 15 gusting 35 0.4-6.0 Snow.
2015-Jan-28 00:35 330 14 gusting 29 0.4-6.0 Snow.
2015-Jan-28 00:15 330 17 gusting 35 0.4-6.0 Snow.
2015-Jan-27 23:55 340 16 gusting 35 0.4-6.0 Snow.
2015-Jan-27 23:35 340 17 gusting 36 0.4-6.0 Snow.
2015-Jan-27 23:15 330 16 gusting 27 0.2-6.0 Snow.
2015-Jan-27 22:55 330 15 gusting 33 0.4-6.0 Snow.
2015-Jan-27 22:35 340 18 gusting 34 0.2-6.0 Snow.
2015-Jan-27 22:15 340 20 gusting 36 -6.0 Heavy snow.
2015-Jan-27 21:55 330 17 gusting 35 0.2-6.0 Snow.
2015-Jan-27 21:35 330 19 gusting 32 0.2-6.0 Snow.
2015-Jan-27 21:15 330 20 gusting 39 -6.0 Snow.
2015-Jan-27 20:55 330 20 gusting 34 -6.0 Snow.
2015-Jan-27 20:35 330 19 gusting 31 -7.0 Snow.
2015-Jan-27 20:15 330 15 gusting 30 -6.0 Heavy snow.
2015-Jan-27 19:55 340 17 gusting 34 -6.0 Heavy snow.
2015-Jan-27 19:35 330 16 gusting 25 -6.0 Heavy snow.
2015-Jan-27 19:15 330 13 gusting 25 -6.0 Heavy snow.
2015-Jan-27 18:55 330 12 gusting 24 -6.0 Heavy snow.
2015-Jan-27 18:35 340 14 gusting 33 -5.0 Heavy snow.
2015-Jan-27 18:15 360 23 gusting 44 -3.0 Snow.
2015-Jan-27 17:55 010 15 gusting 41 0.2-3.0 Light snow.
2015-Jan-27 17:35 360 18 gusting 41 0.2-3.0 Light snow.
2015-Jan-27 17:15 010 16 gusting 34 0.2-3.0 Light snow.
2015-Jan-27 16:55 010 20 gusting 39 0.2-3.0 Light snow.
2015-Jan-27 16:35 010 27 gusting 40 0.2-2.0 Light snow.
2015-Jan-27 16:15 010 20 gusting 43 0.2-2.0 Light snow.
2015-Jan-27 15:55 030 25 gusting 44 0.2-2.0 Light snow.
2015-Jan-27 15:35 010 23 gusting 43 0.2-2.0 Light snow.
2015-Jan-27 15:15 010 19 gusting 40 0.2-2.0 Light snow.
2015-Jan-27 14:55 360 20 gusting 40 0.2-2.0 Light snow.
2015-Jan-27 14:35 010 19 gusting 40 0.2-3.0 Light snow.
2015-Jan-27 14:15 010 22 gusting 39 0.4-3.0 Light snow.
2015-Jan-27 13:55 360 20 gusting 35 0.2-3.0 Light snow.
2015-Jan-27 13:35 010 22 gusting 33 0.2-3.0 Light snow.
2015-Jan-27 13:15 020 20 gusting 46 -3.0 Light snow.
2015-Jan-27 12:55 010 18 gusting 37 -3.0 Light snow.
2015-Jan-27 12:35 360 19 gusting 44 -3.0 Snow.
2015-Jan-27 12:15 010 18 gusting 35 -4.0 Snow.
2015-Jan-27 11:55 360 19 gusting 35 -4.0 Heavy snow.
2015-Jan-27 11:35 360 20 gusting 38 -4.0 Snow.
2015-Jan-27 11:15 010 20 gusting 43 -3.0 Snow.
2015-Jan-27 10:55 360 22 gusting 36 -3.0 Snow.
2015-Jan-27 10:35 360 23 gusting 41 -3.0 Snow.
2015-Jan-27 10:15 010 19 gusting 37 0.2-3.0 Snow.
2015-Jan-27 09:55 010 22 gusting 36 0.2-2.0 Snow.
2015-Jan-27 09:35 360 22 gusting 38 -2.0 Snow.
2015-Jan-27 09:15 010 22 gusting 42 -2.0 Heavy snow.
2015-Jan-27 08:55 010 22 gusting 41 -1.0 Heavy snow.
2015-Jan-27 08:35 010 19 gusting 43 -1.0 Heavy snow.
2015-Jan-27 08:15 010 20 gusting 38 -1.0 Snow.